Presure
135 118 108 107 116 139 115 114 117 138 115 109 135 89 121 109 144 131 149 148 131 137 156 130 137 126 133 187 153 135 215 194 198 197 182 194 199 169 193 190 162 148 180 191 136
133 134 127 141 121 144 145 113 127 145 134 134 141 109 123 93 113 136 125 129 156 107 123 128 115 129 151 143 169 209 232 264 234 183 190 178 207 202 168 206 185 191 171 158 138
160 104 152 96 147 140 142 114 143 130 153 142 150 117 122 95 121 153 122 152 113 153 111 110 144 133 142 131 121 127 226 190 232 178 179 191 169 161 164 166 182 191 180 164 170
138 127 109 123 123 115 118 125 133 142 138 122 127 127 123 137 132 126 140 156 129 159 81 133 158 136 160 153 153 146 143 191 195 192 179 168 171 181 202 174 182 211 164 159 172
153 152 113 141 135 151 136 140 114 139 141 118 117 142 141 126 131 112 152 134 142 139 164 129 111 155 132 123 116 116 220 143 213 206 190 181 203 180 174 204 177 175 178 168 166
150 153 152 150 158 124 129 155 125 126 155 152 129 133 121 148 127 132 134 147 134 147 133 129 108 129 164 138 111 146 135 142 210 181 197 160 183 174 188 199 168 175 184 166 181
144 151 158 150 151 153 138 143 143 112 152 133 151 120 125 110 149 102 145 124 136 149 127 145 123 141 161 157 122 111 154 135 149 142 188 195 189 191 187 183 183 186 183 178 181
159 162 155 151 134 141 150 154 144 150 121 131 133 144 163 156 125 131 143 118 146 111 143 77 128 102 141 119 131 164 150 126 164 133 207 205 199 203 200 200 194 193 195 185 214
169 164 154 161 150 146 158 149 148 141 157 146 129 129 119 120 144 140 132 132 148 130 160 140 85 109 112 147 102 150 157 118 136 141 136 141 179 216 216 228 217 229 223 190 192
178 160 156 167 161 147 147 148 131 153 132 133 137 132 116 132 143 129 102 149 133 125 146 134 141 154 128 145 122 118 145 147 136 141 122 160 152 204 200 189 209 204 198 193 190
201 180 166 168 155 156 161 139 152 157 158 142 156 149 141 147 159 143 97 156 132 143 155 118 156 150 130 146 135 112 102 151 150 145 143 149 159 153 212 175 189 179 181 173 192
168 199 154 176 173 165 152 155 160 158 128 161 136 153 143 133 139 146 109 106 122 136 149 143 147 134 147 135 152 121 158 155 157 142 151 137 131 187 165 183 180 164 194 174 183
194 197 212 182 198 171 168 158 152 149 155 161 159 141 150 151 148 134 138 145 106 143 152 152 131 144 150 135 145 126 152 148 161 153 158 139 154 151 134 163 176 183 178 180 164
170 140 157 148 217 192 177 165 157 148 155 150 152 159 144 141 143 146 144 144 123 122 149 138 147 147 150 145 145 119 146 127 155 118 157 133 141 151 152 129 155 163 160 168 176
175 171 169 181 188 211 189 170 164 159 156 163 151 168 154 150 149 146 144 150 149 123 140 156 132 154 108 147 142 99 147 148 107 151 132 125 154 141 138 165 167 164 173 166 179
204 193 185 175 180 185 192 198 180 175 166 161 162 152 163 163 154 159 150 141 146 154 152 154 149 140 137 132 148 120 149 136 154 142 138 137 150 164 148 166 149 168 169 164 161
195 200 194 198 216 202 171 169 190 171 194 169 164 162 161 158 156 155 150 156 151 146 150 150 151 147 146 131 148 143 148 141 143 144 141 155 147 133 157 149 163 142 166 168 166
192 187 195 200 166 190 172 202 175 177 183 218 205 250 197 173 155 160 153 150 156 164 163 151 149 151 155 163 142 149 135 132 130 140 152 131 111 149 132 134 131 145 152 164 161
195 192 183 205 203 194 199 156 190 174 186 165 162 177 183 180 183 168 151 157 160 151 160 160 160 146 149 151 146 154 144 149 150 144 147 154 145 144 135 153 127 158 160 163 157
194 195 197 200 211 208 214 176 201 204 183 154 153 172 187 176 160 170 170 165 160 160 164 159 168 151 160 158 150 150 151 143 148 147 148 139 144 142 137 152 155 160 153 163 156
193 195 198 214 216 215 204 204 178 187 187 188 189 153 166 186 186 178 155 154 161 158 178 163 158 161 173 152 157 150 159 151 155 145 144 148 156 150 152 151 161 158 160 157 151
180 191 196 202 208 218 203 198 159 190 197 159 208 193 190 183 186 180 182 186 190 194 177 174 173 166 151 155 156 142 153 155 154 149 147 150 157 164 154 155 162 155 168 157 156
177 184 194 196 203 208 204 207 207 197 192 182 189 171 187 191 185 171 174 179 196 180 185 174 177 163 169 171 166 156 165 141 153 159 144 146 154 158 164 160 162 155 155 156 161
180 188 192 193 189 194 210 204 199 212 205 194 180 184 178 195 195 181 189 178 167 159 160 162 167 166 172 165 165 152 161 157 160 146 152 152 158 173 154 160 161 157 153 150 157
192 184 202 169 182 174 207 208 205 212 206 199 187 184 171 182 179 183 218 196 205 198 184 179 166 164 165 162 162 166 168 150 141 153 159 172 161 160 159 163 152 148 152 160 154
188 198 192 184 167 183 200 200 200 206 212 197 193 204 190 159 197 185 196 186 185 171 211 190 190 213 175 177 178 170 168 183 167 173 170 157 166 159 157 152 153 152 158 157 159
204 191 183 194 170 195 195 187 197 201 216 199 201 197 198 206 206 187 165 169 231 189 176 194 187 186 179 182 180 175 175 171 172 173 175 168 168 148 162 162 158 151 159 158 164
Wind_Speed
64 50 42 40 41 53 36 32 31 42 29 24 37 15 9 21 47 30 43 42 40 27 49 27 38 41 45 50 60 22 17 21 12 11 28 13 32 25 41 41 9 4 20 37 28
64 63 56 61 48 58 55 34 39 46 42 39 42 22 24 12 19 39 23 33 46 17 30 31 27 41 57 48 61 21 12 27 30 20 9 26 35 37 22 40 27 29 18 6 22
85 50 73 40 69 57 54 37 47 40 51 45 51 26 27 17 21 53 25 47 18 48 33 38 46 33 41 39 40 38 12 23 27 21 22 21 19 11 17 15 20 31 23 17 18
71 63 52 55 52 46 44 43 44 47 47 31 36 36 32 41 36 30 37 54 22 54 12 18 51 29 55 51 49 46 48 21 20 21 18 19 20 23 38 18 24 32 13 14 18
88 86 53 71 63 73 56 52 39 45 49 33 33 46 45 26 41 23 54 29 46 38 55 29 40 54 35 39 29 18 15 47 26 18 12 16 22 17 16 28 22 21 23 15 18
90 91 87 84 85 56 53 72 46 43 52 55 38 41 31 53 34 46 39 50 29 47 27 37 19 33 61 37 30 47 37 43 17 27 22 17 25 15 17 37 18 32 45 17 46
84 92 94 83 85 83 62 61 60 41 53 45 54 37 39 25 56 26 56 25 45 51 25 48 36 44 57 58 27 24 52 41 47 52 23 25 32 39 40 38 42 40 35 33 45
103 101 96 89 73 74 77 77 62 64 46 48 45 52 55 56 32 47 52 19 54 26 45 15 40 17 32 30 29 58 49 41 57 43 27 20 28 36 41 46 41 44 46 44 38
110 105 95 99 85 79 90 75 68 60 67 60 48 46 37 38 52 50 45 38 56 42 59 44 15 34 9 41 25 51 56 42 47 54 51 59 25 27 28 20 17 9 10 18 18
116 98 95 103 98 80 78 73 64 74 57 55 55 47 38 48 53 42 31 58 41 31 52 38 46 56 27 37 40 42 35 47 41 43 37 50 49 19 10 10 14 14 16 16 18
113 116 105 104 94 96 93 68 81 83 82 63 71 62 56 55 57 59 29 62 40 55 51 32 56 49 18 46 39 41 27 38 39 33 35 38 47 55 29 24 24 23 18 13 26
77 77 83 105 106 102 90 90 91 85 63 77 58 67 60 51 55 60 39 37 41 49 56 48 52 38 52 42 55 42 59 52 50 20 40 35 25 41 44 36 33 26 33 26 31
87 92 79 109 94 106 102 98 91 77 83 84 74 61 66 65 60 51 59 63 32 55 58 58 42 46 51 45 42 39 52 46 60 43 56 27 38 53 31 47 40 39 40 39 28
99 69 73 66 72 106 105 100 97 79 85 75 73 72 66 60 61 65 64 62 49 45 60 50 54 51 50 48 47 26 45 45 61 37 59 20 30 55 53 28 53 44 38 42 42
98 92 95 87 81 75 107 100 99 91 87 90 77 84 75 72 70 69 65 66 64 45 55 61 45 57 34 49 44 22 51 52 31 61 22 43 55 29 36 61 56 53 48 44 49
91 99 99 85 93 85 84 79 96 99 95 86 88 77 82 79 74 72 68 63 59 62 62 69 53 48 32 35 51 36 56 47 60 43 28 55 63 74 51 63 59 56 54 50 47
95 92 82 85 77 82 80 73 77 88 76 94 91 87 84 81 78 75 71 72 66 64 63 67 59 57 54 46 52 51 56 40 50 48 53 69 60 48 71 57 67 53 62 56 53
95 92 87 81 78 79 71 70 79 89 82 53 67 58 80 89 79 79 76 68 72 77 74 65 63 61 62 67 51 56 50 37 51 49 64 48 45 72 56 32 38 63 71 68 59
92 93 91 81 78 77 72 72 76 76 75 79 78 78 70 81 77 80 73 74 76 66 73 74 74 54 57 54 52 60 52 61 62 56 60 66 61 64 34 76 34 73 69 65 66
94 91 87 85 74 73 63 74 68 51 69 73 72 77 72 83 80 77 82 79 78 74 78 69 72 65 72 64 57 56 58 54 62 59 63 49 63 60 49 75 71 73 70 65 65
93 91 86 75 70 65 62 63 70 73 73 73 72 76 78 69 70 81 72 71 70 73 77 72 71 73 72 60 63 60 68 61 64 56 59 68 74 72 73 78 74 77 77 64 62
98 95 87 84 71 57 62 68 72 69 63 69 59 63 68 69 65 68 66 65 67 76 73 75 75 73 60 61 65 51 61 62 64 62 64 71 79 75 77 77 71 81 75 67 73
102 93 91 83 71 57 61 61 56 65 66 67 60 65 66 66 66 78 73 71 62 68 68 71 69 69 75 72 70 62 67 48 61 66 61 60 75 80 75 75 71 74 79 76 76
103 100 90 83 75 67 60 63 61 59 60 65 67 65 66 66 64 69 66 70 71 70 70 71 68 73 72 72 72 52 64 65 66 59 66 75 74 67 74 76 72 75 77 64 78
105 96 89 70 75 72 60 59 55 56 60 59 67 64 66 62 65 64 63 63 65 68 72 77 71 74 75 73 73 74 70 62 55 70 67 67 73 77 72 65 74 75 73 80 84
101 101 91 84 72 76 68 65 59 60 59 62 63 57 60 73 66 63 60 63 63 65 64 68 70 74 74 71 73 70 71 68 71 73 67 76 67 79 73 72 78 80 82 83 85
105 99 94 88 73 75 66 69 61 63 53 57 58 59 59 60 59 63 65 62 56 62 62 64 63 68 68 71 71 68 75 73 73 74 67 68 69 63 79 77 76 77 81 85 86
Wind_Direction
246 246 238 239 247 260 253 251 262 276 266 266 293 275 266 285 311 320 331 339 334 344 352 351 1 340 349 12 19 327 309 346 265 243 358 259 224 12 247 238 226 344 277 249 263
247 249 250 258 251 260 263 252 267 271 278 283 288 273 286 292 290 320 320 320 339 313 344 349 355 339 11 16 14 313 262 186 203 356 298 13 217 236 349 236 291 263 267 339 269
245 240 252 240 258 259 261 246 259 267 272 277 281 272 287 286 292 313 310 327 320 329 315 313 339 355 7 350 358 1 296 14 214 1 350 300 342 19 356 327 312 257 292 310 328
248 244 241 246 247 242 248 255 260 268 274 265 274 280 285 292 302 302 318 315 320 328 247 4 346 5 358 4 12 21 27 1 286 323 357 10 21 353 264 333 333 261 287 251 297
245 248 243 253 253 257 251 259 247 261 269 259 264 282 284 280 295 298 311 315 317 326 332 333 320 343 353 348 356 2 348 29 250 298 334 348 274 340 355 272 315 335 325 296 289
246 245 249 250 249 247 250 259 251 253 263 268 266 273 269 288 281 299 308 312 323 324 327 326 317 342 345 353 347 0 3 12 274 14 312 320 326 360 306 292 317 324 308 304 313
246 246 243 249 249 252 253 256 257 247 263 262 268 262 275 244 289 276 298 293 299 316 310 329 329 335 339 347 355 359 7 1 15 19 17 313 310 303 310 310 312 307 317 321 313
239 239 245 248 245 252 255 255 254 260 252 258 262 271 274 275 270 287 296 278 306 294 319 277 326 337 343 347 341 357 4 341 10 14 289 326 316 302 297 302 304 297 295 303 304
237 239 247 242 250 251 250 255 256 255 259 262 257 259 263 272 278 282 287 290 299 302 311 312 294 308 316 344 345 351 358 342 9 9 8 7 349 294 298 308 311 322 356 326 335
236 240 244 240 243 247 251 256 248 256 250 253 259 258 260 270 278 276 275 289 294 298 304 304 316 320 324 343 323 321 0 359 356 10 355 360 2 30 24 356 36 40 31 24 17
239 237 243 241 245 245 247 247 255 254 255 254 259 264 266 271 271 277 280 284 283 296 300 294 308 315 317 328 319 316 338 354 359 6 10 345 1 2 30 9 19 7 12 5 24
243 243 242 242 241 242 248 250 249 253 248 254 252 261 263 262 266 271 275 271 280 287 295 297 300 309 314 318 322 328 332 339 341 1 356 347 345 2 356 11 13 356 14 5 10
238 239 241 242 241 240 242 246 250 251 253 256 254 256 262 263 265 267 273 277 281 285 287 294 290 303 308 306 316 324 332 327 334 338 340 345 356 357 354 356 1 7 7 6 350
239 240 237 240 244 240 241 243 246 250 252 254 255 256 257 259 265 265 269 273 273 281 286 286 293 298 300 306 312 285 325 322 329 314 335 319 357 349 353 338 353 352 351 355 354
238 240 244 242 243 237 240 242 244 245 250 252 255 256 256 258 261 262 265 270 273 268 280 284 285 295 287 303 308 311 317 322 310 325 327 308 338 353 351 341 344 345 347 347 350
238 241 243 241 245 242 239 240 243 246 247 249 252 253 256 256 258 260 263 264 269 274 277 284 284 290 285 290 303 289 311 312 319 321 325 326 332 331 340 336 342 339 341 342 342
238 241 239 242 238 242 239 243 242 246 244 250 250 253 253 255 257 258 261 263 267 269 272 278 282 284 288 289 297 302 305 311 313 315 317 323 327 323 328 337 332 343 334 336 337
236 238 240 239 238 240 239 239 244 245 246 238 245 234 250 252 254 254 260 262 267 271 273 275 280 280 286 289 292 296 301 298 304 312 314 311 318 321 318 335 331 337 331 331 336
233 237 238 239 239 241 239 242 240 241 240 244 251 249 245 249 250 253 257 262 265 267 270 272 275 279 283 288 292 293 299 301 304 309 311 312 316 318 313 322 310 321 324 326 328
232 235 237 238 235 237 235 239 235 233 240 248 251 251 249 248 251 251 253 258 261 264 268 269 270 277 279 283 286 289 292 296 298 304 306 309 312 315 316 316 315 317 321 323 326
231 233 234 235 232 230 233 230 236 239 240 240 242 253 252 251 252 254 254 257 260 266 258 267 270 272 273 278 281 284 288 292 293 301 304 305 301 305 307 311 309 312 312 322 323
233 232 231 233 234 225 231 234 238 237 237 242 231 238 246 249 249 251 254 253 252 250 258 259 264 268 273 276 280 282 286 289 292 297 300 302 299 297 304 306 305 309 313 319 321
234 234 233 234 233 227 228 230 226 232 234 239 236 243 243 242 244 253 253 252 244 253 254 259 261 269 271 271 275 284 281 286 293 292 294 295 296 297 298 301 303 306 307 312 314
231 232 232 231 232 231 223 227 227 228 227 234 237 235 242 244 244 249 248 248 257 264 266 267 265 267 266 272 276 278 283 286 287 285 291 291 293 285 299 299 302 300 306 313 312
226 233 226 230 232 234 224 226 225 225 224 227 235 238 242 245 249 246 242 248 245 245 249 256 264 268 270 273 276 279 278 282 281 286 287 281 290 292 294 297 299 304 305 305 307
227 224 228 227 230 233 226 228 221 225 222 225 235 231 238 247 240 249 247 248 252 256 246 249 252 248 265 265 267 274 274 267 276 274 276 286 283 288 291 295 294 297 298 301 301
220 225 228 222 225 226 225 229 222 227 223 228 229 232 235 234 236 246 255 255 248 248 255 249 255 255 257 260 264 268 268 270 270 272 274 279 277 294 286 286 289 295 292 295 298